This demonstration page uses our WeatherBlox Daily Observations layout. Learn more.

Left ArrowRight Arrow

36.19886, -115.1175

Hourly Observations for December 18, 2020

Temp ( °F °C ) Dew Point ( °F °C ) Humidity (%) Winds ( mph kmh ) Pressure ( in mb ) Visibility ( mi km ) Precip ( " mm )
12:53 am 00:53 Clear 48 8.9 31 -0.6 52 52 NNW 15 24 30 1016 10 16.0934 0 0
1:53 am 01:53 Clear 49 9.4 30 -1.1 48 48 NNW 13 20 30.03 1017 10 16.0934 0 0
2:53 am 02:53 Clear 48 8.9 29 -1.7 48 48 NNW 16 26 30.06 1018 10 16.0934 0 0
3:53 am 03:53 Partly Cloudy 48 8.9 28 -2.2 46 46 N 13 20 30.09 1019 10 16.0934 0 0
4:53 am 04:53 Cloudy 46 7.8 28 -2.2 50 50 NNW 13 20 30.12 1020 10 16.0934 0 0
5:53 am 05:53 Clear 45 7.2 27 -2.8 49 49 NNW 16 26 30.17 1022 10 16.0934 0 0
6:53 am 06:53 Sunny 50 10 26 -3.3 39 39 NNW 18 30 30.19 1022 10 16.0934 0 0
7:53 am 07:53 Sunny 50 10 24 -4.4 36 36 NNW 21 33 30.21 1023 10 16.0934 0 0
8:53 am 08:53 Sunny 52 11.1 23 -5 32 32 NW 18 30 30.24 1024 10 16.0934 0 0
9:53 am 09:53 Sunny 53 11.7 22 -5.6 30 30 NNW 16 26 30.27 1025 10 16.0934 0.001 0.001
10:53 am 10:53 Sunny 55 12.8 21 -6.1 26 26 NNW 20 31 30.26 1025 10 16.0934 0.001 0.001
11:53 am 11:53 Sunny 56 13.3 21 -6.1 26 26 NW 21 33 30.25 1024 10 16.0934 0 0
12:53 pm 12:53 Sunny 57 13.9 21 -6.1 25 25 NW 18 30 30.24 1024 10 16.0934 0 0
1:53 pm 13:53 Sunny 58 14.4 21 -6.1 24 24 NNW 17 28 30.24 1024 10 16.0934 0 0
2:53 pm 14:53 Sunny 58 14.4 21 -6.1 24 24 NW 14 22 30.24 1024 10 16.0934 0 0
3:53 pm 15:53 Sunny 57 13.9 20 -6.7 24 24 NW 12 19 30.26 1025 10 16.0934 0 0
4:53 pm 16:53 Clear 55 12.8 21 -6.1 26 26 NW 9 15 30.28 1026 10 16.0934 0 0
5:53 pm 17:53 Clear 53 11.7 21 -6.1 28 28 NNW 13 20 30.3 1026 10 16.0934 0 0
6:53 pm 18:53 Clear 53 11.7 21 -6.1 28 28 NNW 12 19 30.32 1027 10 16.0934 0 0
7:53 pm 19:53 Clear 52 11.1 20 -6.7 28 28 NNW 12 19 30.33 1027 10 16.0934 0 0
8:53 pm 20:53 Clear 49 9.4 21 -6.1 33 33 NNW 8 13 30.35 1028 10 16.0934 0 0
9:53 pm 21:53 Clear 49 9.4 21 -6.1 33 33 NNW 8 13 30.36 1028 10 16.0934 0 0
10:53 pm 22:53 Clear 46 7.8 21 -6.1 37 37 N 7 11 30.37 1028 10 16.0934 0 0
11:53 pm 23:53 Clear 46 7.8 21 -6.1 37 37 NW 7 11 30.37 1029 10 16.0934 0 0

Powered by AerisWeather